Regional Weather Roundup
Issued by NWS

Home | Current Version | Previous Version | Graphics & Text | Print | Product List | Glossary On
Versions: 1 2 3 4 5 6 7 8 9 10 11 12 13 14 15 16 17 18 19 20 21 22 23 24 25 26 27 28 29 30 31 32 33 34 35 36 37 38 39 40 41 42 43 44 45 46 47 48 49 50
000
ASUS43 KDMX 030607
RWRIA

WEATHER ROUNDUP FOR IOWA
NATIONAL WEATHER SERVICE DES MOINES IA
100 AM CDT MON AUG 03 2015

NOTE: "FAIR" INDICATES FEW OR NO CLOUDS BELOW 12,000 FEET WITH NO
SIGNIFICANT WEATHER AND/OR OBSTRUCTIONS TO VISIBILITY.

* - THESE STATIONS ARE NOT NWS STATIONS...THUS NOT UNDER NWS
QUALITY CONTROL.  THEY ALSO DO NOT REPORT WEATHER SUCH
AS PRECIPITATION OR FOG.

IAZ001>003-012>014-020>022-031>034-043>046-030700-
   NORTHWEST IOWA

CITY           SKY/WX    TMP DP  RH WIND       PRES   REMARKS
CARROLL *      MOCLDY    66  64  94 N6        29.91R
CHEROKEE *     CLEAR     62  61  97 CALM      29.94R
DENISON *      PTCLDY    68  64  88 NE9       29.89R
LE MARS *      CLEAR     63  63 100 CALM      29.94S
ORANGE CITY *  CLEAR     64  59  82 S3        29.95R
SHELDON *      CLEAR     59  57  94 NW5       29.93R
SPENCER        CLEAR     59  55  87 NW6       29.92R
6HR MIN TEMP:  59; 6HR MAX TEMP:  85;

STORM LAKE *   CLEAR     64  61  88 N7        29.94R
$$

IAZ055>058-069>071-079>083-090>094-030700-
   SOUTHWEST IOWA

CITY           SKY/WX    TMP DP  RH WIND       PRES   REMARKS
ATLANTIC *     CLEAR     68  66  94 MISG      29.89R
AUDUBON *      PTCLDY    70  64  83 N7        29.91R
CLARINDA *     MOCLDY    73  72  94 S5        29.89S
COUNCIL BLFS *   N/A     72  72 100 N5        29.89S
CRESTON *      PTCLDY    66  64  94 S6        29.91R
HARLAN  *      CLEAR     70  70 100 CALM      29.93R
LAMONI         LGT RAIN  68  62  81 CALM      29.89R
6HR MIN TEMP:  68; 6HR MAX TEMP:  82; 6HR PCP:  0.02;

RED OAK *      PTCLDY    70  68  94 CALM      29.88R
SHENANDOAH *   MOCLDY    75  72  88 NE6       29.87R
$$

IAZ047>049-059>061-072>074-084-030700-
   CENTRAL IOWA

CITY           SKY/WX    TMP DP  RH WIND       PRES   REMARKS
AMES           CLEAR     69  61  75 N12       29.88R
6HR MIN TEMP:  69; 6HR MAX TEMP:  87;

ANKENY *       CLEAR     72  63  73 N8        29.87R
CHARITON *     MOCLDY    70  63  78 W8        29.88R
DES MOINES     PTCLDY    74  62  66 N8        29.87R
6HR MIN TEMP:  73; 6HR MAX TEMP:  78;

GRINNELL*      CLEAR     68  63  83 NW3       29.86S
KNOXVILLE *    CLEAR     66  63  88 NW7       29.86R
MARSHALLTOWN   CLEAR     67  61  81 NW12      29.86R
6HR MIN TEMP:  67; 6HR MAX TEMP:  86;

PELLA *        CLEAR     68  66  95 NW5       29.87R
PERRY *          N/A     70  64  83 N8        29.89S
$$

IAZ004>006-015-016-023>025-035-036-030700-
   NORTH CENTRAL IOWA

CITY           SKY/WX    TMP DP  RH WIND       PRES   REMARKS
ALGONA *       CLEAR     64  59  82 N7        29.91R
CLARION *      CLEAR     63  59  88 N7        29.90R
ESTHERVILLE    CLEAR     59  56  89 NW6       29.92R
6HR MIN TEMP:  59; 6HR MAX TEMP:  79;

FORT DODGE *   PTCLDY    64  57  77 W3        29.92R
MASON CITY     CLEAR     61  57  87 NW6       29.91R
6HR MIN TEMP:  61; 6HR MAX TEMP:  82;

FOREST CITY *  CLEAR     63  55  77 NW5       29.90R
IOWA FALLS *     N/A     66  58  74 NW5       29.90R
$$

IAZ007>011-017>019-026>030-037>042-050>054-066-030700-
   NORTHEAST IOWA

CITY           SKY/WX    TMP DP  RH WIND       PRES   REMARKS
CEDAR RAPIDS   CLEAR     69  67  93 NW6       29.82R
6HR MIN TEMP:  67; 6HR MAX TEMP:  86;

CHARLES CITY * CLEAR     64  61  88 NW9       29.88R
CLINTON *      CLEAR     72  66  83 NW6       29.80R
DECORAH *      CLEAR     68  59  73 NW9       29.83R
DUBUQUE        CLEAR     72  62  71 NW10      29.80R
6HR MIN TEMP:  72; 6HR MAX TEMP:  85;

MONTICELLO *   PTCLDY    72  63  73 NW7       29.81R
OELWEIN *        N/A    N/A N/A N/A MISG        N/A
WATERLOO       CLEAR     67  60  78 NW12      29.85R
6HR MIN TEMP:  67; 6HR MAX TEMP:  85;

$$

IAZ064-065-067-068-078-030700-
   EAST CENTRAL IOWA

CITY           SKY/WX    TMP DP  RH WIND       PRES   REMARKS
DAVENPORT      MOCLDY    71  62  73 W10       29.80R
6HR MIN TEMP:  71; 6HR MAX TEMP:  86;

IOWA CITY      CLEAR     71  63  75 W9        29.83R
6HR MIN TEMP:  71; 6HR MAX TEMP:  88;

MT. PLEASANT * CLEAR     74  54  49 W5        29.82R
MUSCATINE *    CLEAR     75  63  64 NW12G17   29.80S
QUAD CITIES    PTCLDY    75  61  61 W14       29.78R
6HR MIN TEMP:  73; 6HR MAX TEMP:  88; 6HR PCP:  0.18;

$$

IAZ062-063-075>077-085>089-095>099-030700-
   SOUTHEAST IOWA

CITY           SKY/WX    TMP DP  RH WIND       PRES   REMARKS
BURLINGTON     CLEAR     72  69  90 W5        29.80R
6HR MIN TEMP:  71; 6HR MAX TEMP:  85;

FAIRFIELD *    PTCLDY    68  59  73 W8        29.83R
FORT MADISON * CLEAR     70  61  73 W3        29.81S
KEOKUK *       CLEAR     72  59  64 NW5       29.80R
OSKALOOSA *      N/A     65  62  89 W6        29.86R
CENTERVILLE *  CLEAR     66  63  88 W5        29.88R
OTTUMWA        PTCLDY    69  61  75 W12       29.83R
6HR MIN TEMP:  67; 6HR MAX TEMP:  82;

WASHINGTON *   CLEAR     70  61  73 NW10      29.83R
$$

ABBREVIATIONS USED IN REMARKS
   TC - TEMPERATURES IN CELSIUS
  WCI - WIND CHILL INDEX
   HX - HEAT INDEX
  VSB - VISIBILITY
$$



USA.gov is the U.S. government's official web portal to all federal, state and local government web resources and services.